Date String (YYYY-MM-DD hh:mm:ss) UTC,Instrument flags,Ambient pressure (hPa),Sample flow (lpm),Bypass flow (lpm),Sample temperature (°C),Ambient temperature (°C),ASC tube jacket temperature (°C),LED temperature (°C),Box temperature (°C),Sample RH (%),Span deviation,Mass concentration (μg/m³),Mass concentration (μg/m³),Mass concentration (μg/m³)
DateTimeUTC,F1_M11,P_M11,Q1_M11,Q2_M11,T1_M11,T2_M11,T3_M11,T4_M11,T5_M11,U1_M11,ZSPAN_M11,X0_M11,X2_M11,X1_M11
2023-01-06 08:00:00,,0820.9,5.01,0.00,22.7,22.0,00.0,31.3,24.5,09.0,0000.0,0013.05,0006.95,0006.34
2023-01-06 08:01:00,,0820.9,5.00,0.00,22.7,21.8,00.0,31.3,24.4,08.9,0000.0,0012.83,0006.92,0006.30
2023-01-06 08:02:00,,0820.9,4.99,0.00,22.6,21.6,00.0,31.4,24.4,08.7,0000.0,0012.46,0006.86,0006.24
2023-01-06 08:03:00,,0820.9,5.00,0.00,22.6,21.4,00.0,31.4,24.4,08.7,0000.0,0012.18,0006.79,0006.18
2023-01-06 08:04:00,,0820.8,5.00,0.00,22.6,21.3,00.0,31.4,24.3,08.7,0000.0,0012.09,0006.73,0006.10
2023-01-06 08:05:00,,0820.9,5.00,0.00,22.6,21.1,00.0,31.4,24.2,08.6,0000.0,0011.31,0006.63,0006.02
2023-01-06 08:06:00,,0820.8,5.00,0.00,22.5,20.8,00.0,31.4,24.1,08.8,0000.0,0011.42,0006.51,0005.90
2023-01-06 08:07:00,,0820.7,5.00,0.00,22.5,20.7,00.0,31.4,24.1,08.9,0000.0,0012.24,0006.39,0005.79
2023-01-06 08:08:00,,0820.7,5.02,0.00,22.4,20.7,00.0,31.3,24.0,08.8,0000.0,0012.95,0006.33,0005.69
2023-01-06 08:09:00,,0820.7,5.01,0.00,22.4,20.8,00.0,31.3,24.0,08.7,0000.0,0013.38,0006.27,0005.63
2023-01-06 08:10:00,,0820.7,5.00,0.00,22.4,20.8,00.0,31.3,24.0,08.8,0000.0,0013.01,0006.24,0005.56
2023-01-06 08:11:00,,0820.8,5.00,0.00,22.4,20.8,00.0,31.3,24.0,09.1,0000.0,0013.30,0006.19,0005.49
2023-01-06 08:12:00,,0820.8,4.99,0.00,22.3,20.8,00.0,31.3,24.0,09.1,0000.0,0013.52,0006.20,0005.44
2023-01-06 08:13:00,,0820.8,5.01,0.00,22.3,20.8,00.0,31.2,24.0,09.0,0000.0,0013.67,0006.23,0005.46
2023-01-06 08:14:00,,0820.8,4.98,0.00,22.3,20.8,00.0,31.2,24.0,09.1,0000.0,0013.83,0006.31,0005.50
2023-01-06 08:15:00,,0820.8,5.00,0.00,22.3,21.2,00.0,31.2,24.1,09.0,0000.0,0014.50,0006.36,0005.54
2023-01-06 08:16:00,,0820.7,5.00,0.00,22.4,22.2,00.0,31.2,24.3,08.8,0000.0,0014.72,0006.43,0005.58
2023-01-06 08:17:00,,0820.7,5.00,0.00,22.5,22.6,00.0,31.2,24.5,08.7,0000.0,0014.50,0006.39,0005.55
2023-01-06 08:18:00,,0820.7,5.00,0.00,22.6,22.3,00.0,31.2,24.5,08.7,0000.0,0013.40,0006.30,0005.48
2023-01-06 08:19:00,,0820.8,5.01,0.00,22.6,22.0,00.0,31.3,24.4,08.7,0000.0,0013.74,0006.30,0005.47
2023-01-06 08:20:00,,0820.9,4.99,0.00,22.6,21.8,00.0,31.3,24.3,08.8,0000.0,0013.55,0006.31,0005.49
2023-01-06 08:21:00,,0821.0,4.99,0.00,22.6,21.6,00.0,31.3,24.3,08.9,0000.0,0013.83,0006.35,0005.50
2023-01-06 08:22:00,,0821.1,5.00,0.00,22.5,21.5,00.0,31.3,24.3,08.9,0000.0,0013.35,0006.33,0005.52
2023-01-06 08:23:00,,0821.1,5.00,0.00,22.5,21.4,00.0,31.3,24.2,09.0,0000.0,0013.28,0006.34,0005.54
2023-01-06 08:24:00,,0821.2,5.00,0.00,22.5,21.3,00.0,31.3,24.2,09.1,0000.0,0013.33,0006.32,0005.51
2023-01-06 08:25:00,,0821.0,5.00,0.00,22.5,21.2,00.0,31.3,24.2,09.1,0000.0,0013.84,0006.30,0005.48
2023-01-06 08:26:00,,0821.0,4.99,0.00,22.5,21.1,00.0,31.3,24.2,09.1,0000.0,0013.71,0006.32,0005.46
2023-01-06 08:27:00,,0821.1,4.99,0.00,22.4,21.1,00.0,31.3,24.1,09.1,0000.0,0014.45,0006.37,0005.45
2023-01-06 08:28:00,,0821.0,5.00,0.00,22.4,21.1,00.0,31.3,24.1,09.2,0000.0,0015.12,0006.50,0005.52
2023-01-06 08:29:00,,0821.1,5.00,0.00,22.4,21.1,00.0,31.3,24.1,09.3,0000.0,0015.24,0006.68,0005.65
2023-01-06 08:30:00,,0821.0,5.00,0.00,22.4,21.1,00.0,31.3,24.1,09.3,0000.0,0014.28,0006.80,0005.81
2023-01-06 08:31:00,,0821.0,5.00,0.00,22.4,21.1,00.0,31.3,24.1,09.3,0000.0,0014.22,0006.96,0005.96
2023-01-06 08:32:00,,0821.0,5.01,0.00,22.4,21.0,00.0,31.2,24.1,09.3,0000.0,0013.88,0007.06,0006.09
2023-01-06 08:33:00,,0821.0,4.99,0.00,22.4,21.0,00.0,31.2,24.1,09.4,0000.0,0014.06,0007.19,0006.22
2023-01-06 08:34:00,,0820.9,4.99,0.00,22.4,21.0,00.0,31.2,24.1,09.4,0000.0,0014.58,0007.29,0006.37
2023-01-06 08:35:00,,0821.0,4.98,0.00,22.4,21.0,00.0,31.2,24.1,09.4,0000.0,0014.52,0007.44,0006.54
2023-01-06 08:36:00,,0821.0,4.99,0.00,22.3,20.9,00.0,31.2,24.0,09.4,0000.0,0014.25,0007.56,0006.72
2023-01-06 08:37:00,,0821.0,4.99,0.00,22.4,21.4,00.0,31.2,24.1,09.4,0000.0,0014.58,0007.67,0006.88
2023-01-06 08:38:00,,0821.0,5.00,0.00,22.5,22.3,00.0,31.2,24.4,09.3,0000.0,0014.42,0007.81,0007.05
2023-01-06 08:39:00,,0821.1,5.00,0.00,22.6,23.1,00.0,31.2,24.6,09.3,0000.0,0014.02,0007.88,0007.21
2023-01-06 08:40:00,,0821.1,4.99,0.00,22.7,22.8,00.0,31.3,24.6,09.2,0000.0,0014.61,0008.01,0007.36
2023-01-06 08:41:00,,0821.2,4.99,0.00,22.7,22.4,00.0,31.3,24.6,09.2,0000.0,0015.20,0008.12,0007.44
2023-01-06 08:42:00,,0821.2,5.00,0.00,22.6,22.1,00.0,31.3,24.5,09.2,0000.0,0015.27,0008.18,0007.51
2023-01-06 08:43:00,,0821.2,5.00,0.00,22.6,21.8,00.0,31.3,24.4,09.2,0000.0,0016.15,0008.33,0007.60
2023-01-06 08:44:00,,0821.1,5.00,0.00,22.6,21.6,00.0,31.4,24.4,09.1,0000.0,0016.01,0008.39,0007.62
2023-01-06 08:45:00,,0821.1,5.00,0.00,22.6,21.4,00.0,31.4,24.3,09.0,0000.0,0015.43,0008.31,0007.55
2023-01-06 08:46:00,,0821.1,5.00,0.00,22.6,21.3,00.0,31.4,24.3,09.0,0000.0,0015.32,0008.20,0007.46
2023-01-06 08:47:00,,0821.1,5.01,0.00,22.6,21.2,00.0,31.3,24.3,09.0,0000.0,0015.42,0008.16,0007.43
2023-01-06 08:48:00,,0821.0,5.01,0.00,22.5,21.2,00.0,31.3,24.2,09.1,0000.0,0014.87,0008.19,0007.45
2023-01-06 08:49:00,,0821.0,5.00,0.00,22.5,21.1,00.0,31.3,24.2,09.0,0000.0,0014.36,0008.14,0007.40
2023-01-06 08:50:00,,0821.0,5.00,0.00,22.5,21.1,00.0,31.3,24.2,09.0,0000.0,0014.01,0008.03,0007.31
2023-01-06 08:51:00,,0821.0,5.00,0.00,22.5,21.1,00.0,31.3,24.2,09.0,0000.0,0013.26,0007.90,0007.22
2023-01-06 08:52:00,,0820.9,5.01,0.00,22.5,21.1,00.0,31.3,24.2,09.0,0000.0,0012.71,0007.81,0007.16
2023-01-06 08:53:00,,0821.0,4.99,0.00,22.5,21.1,00.0,31.3,24.2,09.0,0000.0,0012.37,0007.68,0007.05
2023-01-06 08:54:00,,0821.0,5.00,0.00,22.5,21.1,00.0,31.3,24.2,09.1,0000.0,0011.58,0007.52,0006.95
2023-01-06 08:55:00,,0821.0,5.00,0.00,22.5,21.1,00.0,31.3,24.1,09.1,0000.0,0011.35,0007.44,0006.89
2023-01-06 08:56:00,,0821.0,5.01,0.00,22.4,21.0,00.0,31.3,24.1,09.1,0000.0,0011.38,0007.45,0006.90
2023-01-06 08:57:00,,0821.0,5.01,0.00,22.4,21.0,00.0,31.3,24.1,09.2,0000.0,0011.73,0007.54,0006.98
2023-01-06 08:58:00,,0821.1,4.99,0.00,22.4,21.0,00.0,31.3,24.1,09.2,0000.0,0012.65,0007.65,0007.04
2023-01-06 08:59:00,,0821.1,5.01,0.00,22.5,21.6,00.0,31.2,24.3,09.1,0000.0,0013.54,0007.68,0007.00
